Weather History for Haines, AK

Change the Weather History Date:

Saturday, January 26, 2013

  Actual Average Record
Temperature  
Mean Temperature 24 °F -  
Max Temperature 37 °F 26 °F 42 °F (1977)
Min Temperature 10 °F 19 °F -7 °F (2004)
Degree Days  
Heating Degree Days 42    
Moisture  
Dew Point 23 °F    
Average Humidity 85    
Maximum Humidity 96    
Minimum Humidity 67    
Precipitation  
Precipitation 0.04 in - - ()
Sea Level Pressure  
Sea Level Pressure 29.49 in    
Wind  
Wind Speed 16 mph (NNW)    
Max Wind Speed 25 mph    
Max Gust Speed 33 mph    
Visibility 6 miles    
Events Rain , Snow    
Averages and records for this station are not official NWS values.
T = Trace of Precipitation, MM = Missing Value Source: NWS Daily Summary

Daily Weather History Graph

Daily Weather History Graph

Search for Another Location

Airport:

Trip Planner

Search our weather history database for the weather conditions in past years. The results will help you decide how hot, cold, wet, or windy it might be!

Date:

Astronomy

Jan. 26, 2013 Rise Set
Actual Time 8:23 AM AKST 4:06 PM AKST
Civil Twilight 7:36 AM AKST 4:54 PM AKST
Nautical Twilight 6:45 AM AKST 5:44 PM AKST
Astronomical Twilight 5:57 AM AKST 6:32 PM AKST
Moon 4:23 PM AKST (1/26) 7:35 AM AKST (1/26)
Length of Visible Light 9h 17m
Length of Day
7h 42m
Full, 100% of the Moon is Illuminated
Jan 26
Full
Jan 26
Full
Feb 3
Last Quarter
Feb 9
New
Feb 17
First Quarter

Hourly Weather History & Observations

Time (AKST) Temp. Windchill Dew Point Humidity Pressure Visibility Wind Dir Wind Speed Gust Speed Precip Events Conditions
12:14 AM 37.4 °F 29.3 °F 35.6 °F 93% 29.45 in 10.0 mi ESE 12.7 mph 24.2 mph N/A   Overcast
12:54 AM 37.9 °F 29.6 °F 36.0 °F 93% 29.44 in 10.0 mi ESE 13.8 mph 27.6 mph N/A   Overcast
1:54 AM 37.9 °F 30.5 °F 36.0 °F 93% 29.46 in 10.0 mi ESE 11.5 mph 24.2 mph N/A   Overcast
2:54 AM 37.0 °F 27.7 °F 36.0 °F 96% 29.44 in 10.0 mi ESE 16.1 mph 29.9 mph N/A   Overcast
3:37 AM 37.4 °F 28.9 °F 35.6 °F 93% 29.43 in 10.0 mi ESE 13.8 mph 27.6 mph N/A   Overcast
3:54 AM 37.9 °F 30.5 °F 36.0 °F 93% 29.43 in 10.0 mi ESE 11.5 mph 21.9 mph N/A   Overcast
4:02 AM 37.4 °F 29.3 °F 35.6 °F 93% 29.42 in 10.0 mi ESE 12.7 mph 24.2 mph N/A   Overcast
4:54 AM 37.9 °F 28.5 °F 36.0 °F 93% 29.43 in 10.0 mi ESE 17.3 mph 32.2 mph N/A   Overcast
5:01 AM 37.4 °F 27.5 °F 35.6 °F 93% 29.42 in 10.0 mi ESE 18.4 mph 33.4 mph N/A   Overcast
5:16 AM 37.4 °F 28.5 °F 35.6 °F 93% 29.42 in 10.0 mi East 15.0 mph 29.9 mph N/A   Overcast
5:54 AM 37.9 °F 30.0 °F 36.0 °F 93% 29.43 in 10.0 mi East 12.7 mph 23.0 mph N/A   Overcast
6:11 AM 37.4 °F 28.9 °F 35.6 °F 93% 29.41 in 10.0 mi East 13.8 mph 21.9 mph 0.00 in Rain Light Rain
6:16 AM 37.4 °F 28.5 °F 35.6 °F 93% 29.41 in 10.0 mi East 15.0 mph 24.2 mph 0.00 in Rain Light Rain
6:25 AM 37.4 °F 28.2 °F 35.6 °F 93% 29.41 in 10.0 mi ESE 16.1 mph 26.5 mph 0.00 in Rain Light Rain
6:33 AM 37.4 °F 29.8 °F 35.6 °F 93% 29.41 in 10.0 mi ESE 11.5 mph 26.5 mph 0.00 in Rain Light Rain
6:40 AM 37.4 °F 28.9 °F 35.6 °F 93% 29.40 in 10.0 mi East 13.8 mph 21.9 mph 0.00 in Rain Light Rain
6:54 AM 37.9 °F 29.2 °F 36.0 °F 93% 29.41 in 10.0 mi East 15.0 mph 25.3 mph 0.00 in Rain Light Rain
7:54 AM 37.9 °F 29.6 °F 36.0 °F 93% 29.41 in 10.0 mi ESE 13.8 mph 26.5 mph 0.00 in Rain Light Rain
8:51 AM 37.4 °F 28.5 °F 35.6 °F 93% 29.40 in 10.0 mi ESE 15.0 mph 27.6 mph 0.01 in Rain Light Rain
8:54 AM 37.9 °F 28.9 °F 35.1 °F 89% 29.41 in 10.0 mi ESE 16.1 mph 27.6 mph 0.01 in Rain Light Rain
9:12 AM 37.4 °F 27.8 °F 35.6 °F 93% 29.40 in 10.0 mi ESE 17.3 mph 28.8 mph 0.00 in Rain Light Rain
9:24 AM 37.4 °F 28.2 °F 35.6 °F 93% 29.40 in 10.0 mi ESE 16.1 mph 29.9 mph 0.00 in Rain Light Rain
9:54 AM 37.9 °F 28.9 °F 35.1 °F 89% 29.42 in 10.0 mi ESE 16.1 mph 26.5 mph 0.00 in Rain Light Rain
10:20 AM 37.4 °F 27.8 °F 35.6 °F 93% 29.40 in 9.0 mi ESE 17.3 mph 32.2 mph 0.01 in Rain Light Rain
10:43 AM 37.4 °F 28.5 °F 35.6 °F 93% 29.40 in 9.0 mi ESE 15.0 mph 27.6 mph 0.01 in Rain Light Rain
10:54 AM 37.9 °F 28.2 °F 35.1 °F 89% 29.42 in 8.0 mi ESE 18.4 mph 28.8 mph 0.01 in Rain Light Rain
11:54 AM 37.9 °F 28.2 °F 35.1 °F 89% 29.41 in 7.0 mi ESE 18.4 mph 31.1 mph 0.01 in Rain Light Rain
11:58 AM 37.4 °F 27.8 °F 35.6 °F 93% 29.40 in 8.0 mi ESE 17.3 mph 31.1 mph 0.00 in Rain Light Rain
12:54 PM 37.0 °F 28.1 °F 34.0 °F 89% 29.42 in 10.0 mi ESE 15.0 mph 32.2 mph 0.01 in Rain Light Rain
1:34 PM 26.6 °F 15.2 °F 21.2 °F 80% 29.43 in 9.0 mi WNW 13.8 mph - 0.00 in Snow Light Snow
1:54 PM 24.1 °F 9.4 °F 19.9 °F 84% 29.46 in 4.0 mi WNW 20.7 mph - 0.00 in Snow Light Snow
2:03 PM 24.8 °F 10.3 °F 19.4 °F 80% 29.46 in 1.8 mi WNW 20.7 mph - 0.00 in Snow Light Snow
2:22 PM 21.2 °F 6.0 °F 19.4 °F 93% 29.47 in 2.0 mi WNW 19.6 mph - 0.00 in Snow Light Snow
2:39 PM 23.0 °F 7.2 °F 19.4 °F 86% 29.48 in 3.0 mi WNW 23.0 mph 27.6 mph 0.00 in Snow Light Snow
2:46 PM 23.0 °F 8.0 °F 17.6 °F 80% 29.48 in 2.5 mi WNW 20.7 mph - 0.00 in Snow Light Snow
2:52 PM 21.2 °F 6.0 °F 17.6 °F 86% 29.48 in 1.8 mi NW 19.6 mph - 0.00 in Snow Light Snow
2:54 PM 23.0 °F 7.6 °F 18.0 °F 81% 29.49 in 1.5 mi WNW 21.9 mph 27.6 mph 0.00 in Snow Light Snow
3:13 PM 21.2 °F 5.6 °F 15.8 °F 80% 29.49 in 2.5 mi WNW 20.7 mph 29.9 mph 0.00 in Snow Light Snow
3:29 PM 21.2 °F 6.0 °F 15.8 °F 80% 29.50 in 3.0 mi WNW 19.6 mph 27.6 mph 0.00 in Snow Light Snow
3:54 PM 19.9 °F 3.5 °F 15.1 °F 81% 29.51 in 8.0 mi WNW 21.9 mph 28.8 mph 0.00 in Snow Light Snow
4:45 PM 19.4 °F 2.8 °F 12.2 °F 74% 29.53 in 8.0 mi WNW 21.9 mph 26.5 mph 0.00 in Snow Light Snow
4:54 PM 19.0 °F 2.7 °F 12.9 °F 77% 29.54 in 5.0 mi WNW 20.7 mph - 0.00 in Snow Light Snow
5:08 PM 17.6 °F 1.7 °F 10.4 °F 73% 29.54 in 2.5 mi WNW 18.4 mph 28.8 mph 0.00 in Snow Light Snow
5:32 PM 17.6 °F 1.7 °F 10.4 °F 73% 29.56 in 1.8 mi WNW 18.4 mph 25.3 mph 0.00 in Snow Light Snow
5:41 PM 17.6 °F 2.2 °F 10.4 °F 73% 29.56 in 2.0 mi WNW 17.3 mph 26.5 mph 0.00 in Snow Light Snow
5:54 PM 17.1 °F 1.0 °F 10.0 °F 74% 29.58 in 2.5 mi WNW 18.4 mph - 0.00 in Snow Light Snow
6:35 PM 15.8 °F -0.6 °F 10.4 °F 79% 29.58 in 1.5 mi WNW 18.4 mph 25.3 mph 0.00 in Snow Light Snow
6:54 PM 15.1 °F -2.5 °F 9.0 °F 77% 29.60 in 1.8 mi WNW 20.7 mph 28.8 mph 0.00 in Snow Light Snow
7:01 PM 14.0 °F -3.0 °F 8.6 °F 79% 29.59 in 2.0 mi NW 18.4 mph 25.3 mph 0.00 in Snow Light Snow
7:28 PM 14.0 °F -4.3 °F 8.6 °F 79% 29.59 in 3.0 mi WNW 21.9 mph 31.1 mph 0.00 in Snow Light Snow
7:54 PM 12.9 °F -6.9 °F 8.1 °F 81% 29.61 in 5.0 mi WNW 25.3 mph 31.1 mph 0.00 in Snow Light Snow
8:47 PM 12.2 °F -7.5 °F 8.6 °F 85% 29.61 in 2.5 mi WNW 24.2 mph 31.1 mph 0.00 in Snow Light Snow
8:52 PM 12.2 °F -7.1 °F 6.8 °F 79% 29.61 in 3.0 mi WNW 23.0 mph 31.1 mph 0.00 in Snow Light Snow
8:54 PM 12.9 °F -5.7 °F 7.0 °F 77% 29.62 in 3.0 mi WNW 21.9 mph 31.1 mph 0.00 in Snow Light Snow
9:01 PM 12.2 °F -6.7 °F 6.8 °F 79% 29.62 in 4.0 mi WNW 21.9 mph 32.2 mph 0.00 in Snow Light Snow
9:09 PM 12.2 °F -5.8 °F 6.8 °F 79% 29.63 in 5.0 mi WNW 19.6 mph 32.2 mph 0.00 in Snow Light Snow
9:49 PM 12.2 °F -6.7 °F 5.0 °F 73% 29.64 in 3.0 mi WNW 21.9 mph 31.1 mph 0.00 in Snow Light Snow
9:54 PM 12.0 °F -6.5 °F 5.0 °F 73% 29.65 in 3.0 mi WNW 20.7 mph 31.1 mph 0.00 in Snow Light Snow
10:54 PM 10.9 °F -6.5 °F 3.9 °F 73% 29.66 in 4.0 mi WNW 17.3 mph 25.3 mph 0.00 in Snow Light Snow
11:03 PM 12.2 °F -4.8 °F 3.2 °F 67% 29.66 in 5.0 mi WNW 17.3 mph 26.5 mph 0.00 in Snow Light Snow
11:54 PM 10.9 °F -5.9 °F 3.9 °F 73% 29.68 in 4.0 mi NW 16.1 mph 24.2 mph 0.00 in Snow Light Snow